Tracking 19146 objects as of 24-Apr-2018
HD Live streaming from Space Station
objects crossing your sky now

SL-16 DEB

Track SL-16 DEB now!
10-day predictions


NORAD ID: 24301
Int'l Code: 1996-051E
Perigee: 847.5 km
Apogee: 1,152.8 km
Inclination: 71.0 °
Period: 105.0 minutes
Semi major axis: 7371 km
RCS: 0.0888 m2 (small)
Launch date: September 4, 1996
Source: Commonwealth of Independent States (former USSR) (CIS)
Launch site: TYURATAM MISSILE AND SPACE COMPLEX (TTMTR)

Note: This is SATELLITE DEBRIS
aabbcc
Your satellite tracking list
Your tracking list is empty




NASA's NSSDC Master Catalog

Two Line Element Set (TLE):
1 24301U 96051E   18113.72477806 -.00000059 +00000-0 -16883-4 0  9992
2 24301 070.9942 215.0255 0207096 067.8692 080.9747 13.71839146082687
Source of the keplerian elements: AFSPC